Regional Weather Roundup
Issued by NWS Wakefield, VA

Home | Current Version | Previous Version | Text Only | Print | Product List | Glossary Off
Versions: 1 2 3 4 5 6 7 8 9 10 11 12 13 14 15 16 17 18 19 20 21 22 23 24 25 26 27 28 29 30 31 32 33 34 35 36 37 38 39 40 41 42 43 44 45 46 47 48 49 50

000
ASUS41 KAKQ 122315
RWRAKQ

REGIONAL WEATHER ROUNDUP
NATIONAL WEATHER SERVICE WAKEFIELD VA
600 PM EST FRI FEB 12 2016

Note: "fair" indicates few or no clouds below 12,000 feet with no
significant weather and/or obstructions to visibility. * = Denotes
station may not report precipitation (e.g., rain,snow,etc.),
thunder or fog.

VAZ042-051-052>054-056-130000-
NORTHERN VIRGINIA

CITY           SKY/WX    TMP DP  RH WIND       PRES   REMARKS
WASH NATIONAL  MOCLDY    29  12  49 S8        30.02F
DULLES         MOCLDY    28   8  43 SW5       29.99F
FORT BELVOIR   CLOUDY    29   8  41 SE2       30.00F
QUANTICO       CLOUDY    31  13  47 S7        30.02F
FREDERICKSBRG* CLOUDY    30  12  46 S6        30.00F
STAFFORD*      CLOUDY    29   9  41 S6        30.03F
WARRENTON      CLOUDY    31  13  48 S3        29.98F
CULPEPER*      CLOUDY    28  10  45 CALM      29.99F
MANASSAS*      CLOUDY    28  12  50 CALM      29.99F
LEESBURG*      CLOUDY    32  14  47 S5        29.99S
WINCHESTER     CLOUDY    30  14  51 N5        29.96R
FRONT ROYAL*   CLOUDY    30  10  43 E3        29.94R
LURAY*         CLOUDY    30  12  47 N8        29.92R
$$

VAZ048-049-060>072-079>083-130000-
CENTRAL AND SOUTH CENTRAL VIRGINIA

CITY           SKY/WX    TMP DP  RH WIND       PRES   REMARKS
RICHMOND       CLOUDY    28  16  60 S8        30.02S
CHESTERFIELD*  CLOUDY    28   7  40 S6        30.03S
PETERSBURG*    CLOUDY    29  18  63 SW3       30.05R
HANOVER        CLOUDY    28  14  55 S6        30.02F
TAPPAHANNOCK*  CLOUDY    29  17  59 S5        30.02F
QUINTON*       CLOUDY    29  16  57 S5        30.02S
CHARLOTTSVILLE CLOUDY    31  11  43 S10       29.94F WCI  22
GORDONSVILLE*  CLOUDY    30  11  44 S7        29.96F
ORANGE*        CLOUDY    32  10  40 SE6       29.98F
LOUISA*        CLOUDY    30  12  47 S3        29.97S
BUMPASS*       CLOUDY    29  12  49 CALM      29.99S
FARMVILLE*     CLOUDY    29  18  61 CALM      30.00S
CREWE*         CLOUDY    28  19  70 S5        30.00F
FORT PICKETT*  CLOUDY    27  19  72 SW7       30.02S
CHASE CITY*    CLOUDY    28  18  64 CALM      30.00F
CLARKSVILLE*   MOCLDY    30  18  59 CALM      30.01S
SOUTH HILL*    CLOUDY    28  19  70 CALM      30.08R
LAWRENCEVILLE* CLOUDY    27  21  77 CALM      30.03R
EMPORIA*       CLOUDY    28  19  69 CALM      30.04S
$$

VAZ088>098-130000-
SOUTHEAST VIRGINIA

CITY           SKY/WX    TMP DP  RH WIND       PRES   REMARKS
NORFOLK        CLOUDY    27  22  81 CALM      30.01F
VIRGINIA BEACH CLOUDY    31  26  82 CALM      30.00F
NORFOLK NAVAL  CLOUDY    28  23  81 CALM      30.02F
WEST POINT*    CLOUDY    28  21  74 S3        30.06R
SALUDA*        CLOUDY    27  21  80 CALM      30.03S
NEWPORT NEWS   CLOUDY    27  24  89 CALM      30.02F
LANGLEY AFB    CLOUDY    27  23  85 SE6       30.00F
FORT EUSTIS    CLOUDY    27  24  87 CALM      30.00F
WILLIAMSBURG*  MOCLDY    30  27  86 CALM      30.04R
HR EXEC AP*    MOCLDY    27  21  80 SE3       30.03F
FRANKLIN*      CLOUDY    27  23  83 CALM      30.02F
US460-WAKEFLD  CLOUDY    28  22  78 SW3       30.03F
$$

VAZ020-022-025-037-045-130000-
WEST CENTRAL AND SOUTHWEST VIRGINIA

CITY           SKY/WX    TMP DP  RH WIND       PRES   REMARKS
STAUNTON*      CLOUDY    35  17  47 S9        29.92S
WAYNESBORO*    CLOUDY    30  14  51 SW9       29.89F
HOT SPRINGS VA FLURRIES N/A N/A N/A W20G25    29.76F
LYNCHBURG      CLOUDY    28  18  66 S8        29.99R
DANVILLE       CLOUDY    33  14  45 CALM      30.01S
SOUTH BOSTON*  CLOUDY    29  18  61 CALM      30.02S
MARTINSVILLE   CLOUDY    30  13  49 CALM      30.01S
ROANOKE        CLOUDY    30  18  60 SE5       29.98R
BLACKSBURG     CLOUDY    31  26  79 W8G18     29.95R
DUBLIN*        MIX PCPN  33  26  75 W16       29.95R WCI  22
MARION*        MIX PCPN  30  26  84 W23G30    29.95R WCI  17
HILLSVILLE*    CLOUDY    29  25  83 W18G29    29.89S WCI  17
RICHLANDS*     FLURRIES  28  21  75 W20G28    29.98R WCI  14
WISE*          CLOUDY    28  19  69 W13       30.02R WCI  18
ABINGDON*      CLOUDY    32  27  80 W9        30.03R
$$

MDZ021>025-VAZ099-100-130000-
SOUTHERN MARYLAND AND THE DELMARVA PENINSULA

CITY           SKY/WX    TMP DP  RH WIND       PRES   REMARKS
PATUXENT RIVER CLOUDY    27  13  55 SE6       30.03S
BAY BRIDGE APT   N/A     28  12  50 CALM      30.03F
LEONARDTOWN    CLOUDY    28  12  50 MISG        N/A
DOVER          CLOUDY    26  14  59 E3        30.02F
GEORGETOWN     CLOUDY    29   7  39 CALM      30.03F
EASTON         NOT AVBL
CAMBRIDGE      CLOUDY    27  12  54 S5        30.04R
SALISBURY      CLOUDY    28  11  48 SW6       30.03S
OCEAN CITY     CLOUDY    26  12  55 SW10      30.04S WCI  16
WALLOPS ISLAND FLURRIES  26  18  71 S8        30.04F
ACCOMACK*      FLURRIES  27  21  80 S3        30.02F
$$

NCZ012>017-030>032-130000-
NORTH CENTRAL AND EASTERN NORTH CAROLINA

CITY           SKY/WX    TMP DP  RH WIND       PRES   REMARKS
ROANOKE RAPIDS CLOUDY    30  23  74 CALM      30.02F
RALEIGH        CLOUDY    31  21  66 CALM      30.03S
ELIZABETH CITY CLOUDY    29  27  92 N7        30.02F
AHOSKIE*       NOT AVBL
EDENTON*       CLOUDY    31  29  95 N5        30.02F
CURRITUCK*     LGT SNOW  30  29  98 N3        30.02F
KILL DEVIL HLS MIX PCPN  33  31  94 NE3       29.98F
MANTEO         MIX PCPN  32  32 100 NE6       29.99F
CAPE HATTERAS  CLOUDY    36  34  92 N8G23     29.99F
TARBORO*       CLOUDY    30  26  84 CALM      30.04F
GOLDSBORO      CLOUDY    30  30 100 NW3       30.01F
WASHINGTON     CLOUDY    30  28  92 CALM      30.02F
GREENVILLE     CLOUDY    32  30  93 NW3       30.05S
NEW BERN       CLOUDY    32  30  92 N7        30.03F
WILMINGTON     CLOUDY    35  31  85 N7        30.04R
$$

VAZ048-130000-
ELSEWHERE

CITY           SKY/WX    TMP DP  RH WIND       PRES   REMARKS
HARRISBURG PA  FLURRIES  22  12  65 CALM      30.00F
BALTIMORE      CLOUDY    24  14  65 E7        30.02F
ANNAPOLIS      CLOUDY    27  16  63 SE9       30.02F
ANDREWS AFB    FAIR      27  13  56 S7        29.99F
PHILADELPHIA   CLOUDY    24   7  48 S7        30.04F
HENDERSON NC   CLOUDY    29  13  50 CALM      30.01R
GREENSBORO     CLOUDY    35  16  45 SW7       29.98R
ROCKY MOUNT    CLOUDY    29  23  78 CALM      30.02F
$$

VAZ100-130000-
MARINE

STATION/POSITION TIME  TEMP    WIND        PRES    WAVE   SWELL
                       AIR SEA DIR/SP/G            HT/PER HT/PER
                 (UTC) (F)     (DEG/KT/KT) (MB)    (FT/S) (FT/S)
BRANDYWINE LGT   2200   25     120/  9/ 12 1017.5F
CAPE MAY NJ      2200   25 37  130/  4/  5 1017.4F
LEWES DE         2200   27 38  130/  5/  8 1017.1F
15NM E FENWICK I 2250   27 42              1017.5F   1/ 8
OCEAN-CITY-INLET 2200   28 40  240/  6/  8 1016.4F
WACHAPREAGUE VA  2200   25 36  190/  7/  9 1017.7F
THOMAS POINT MD  2300   26 36  180/ 10/ 11 1017.4F
GOOSES REEF MD   2300   28 38  170/  8/ 12 1018.1R   1/ 3
COVE POINT MD    2200   25     180/  9/ 13 1017.6F
SOLOMONS ISLAND  2200   27 39  150/  8/  8   N/A
BISHOPS HEAD MD  2200   27 35  170/  6/  8 1016.2F
PINEY POINT MD   2200          160/  2/  3   N/A
POTOMAC MD       2300   27 39  200/ 10/ 14 1015.9R   1/ 2
CAMBRIDGE MD     2200   27 36  130/  5/  9 1016.4F
LEWISETTA VA     2200   28 36  200/  8/ 10 1016.7F
RAPPAHANNOCK LGT 2200          160/ 10/ 12 1017.7F
STINGRAY PT      2300   28 40  210/  6/  8 1016.7F   1/ 3
YORK RVR RNG VA  2200   27     160/  8/ 10 1016.3F
YORKTOWN VA      2200   27 41  160/  5/  7 1016.8F
JAMESTOWN VA     2300   27 41  210/  4/  8   N/A     0
DOMINION TERM VA 2200   27     150/  4/  6 1017.2F
KIPTOPEKE VA     2200      40   70/  2/  4   N/A
CHES BAY BRIDGE  2200   27 41   CALM  /  1 1016.8F
CAPE HENRY VA    2200   27     130/  4/  6   N/A
CHESAPEAKE LGHT  2200   27      80/  5/  6 1017.9F
WILLOUBY STN VA  2200   27     160/  2/  3 1018.0F
CAPE HENRY BUOY  2228      42                N/A     1/ 9
1ST LANDING BUOY 2300      40                N/A     1
CAPE CHARLES BUO 2226      42                N/A     1/ 9   2/ 9
OFFSHORE WE BUOY 2221      44                N/A     2/ 6   2/ 6
64NM E OF VA BCH 2250   33 48   40/  8/ 12 1015.8F   2/ 5   2/ 5
DUCK PIER NC     2200   31      30/ 11/ 13 1016.0F
44100 DUCK FRF   2224      46                N/A     2/ 5
44056 DUCK FRF   2211      42                N/A     2/ 5
OREGON INLET NC  2200   33 41   10/ 12/ 16 1016.0F
HATTERAS NC      2200   35 47   20/ 19/ 23 1014.9R
DIAMOND SHLS NC  2250   44 61  360/ 21/ 27 1014.4R   6/ 6   2/13
$$



USA.gov is the U.S. government's official web portal to all federal, state and local government web resources and services.